This demonstration page uses our WeatherBlox Daily Observations layout. Learn more.

Left ArrowRight Arrow

39.01783, -85.05884

Hourly Observations for May 22, 2018

Temp ( °F °C ) Dew Point ( °F °C ) Humidity (%) Winds ( mph kmh ) Pressure ( in mb ) Visibility ( mi km ) Precip ( " mm )
12:52 am 00:52 Cloudy with Nearby Thunderstorms 68 20 65 18.3 90 90 S 9 15 30.03 1017 10 16 0.00 0.00
1:08 am 01:08 Cloudy with Thunderstorms 68 20 65 18.3 90 90 S 7 11 30.03 1017 4 6 0.00 0.03
1:21 am 01:21 Cloudy with Strong Thunderstorms 67 19.4 66 18.9 97 97 S 7 11 30.03 1017 2 3 0.11 2.79
1:44 am 01:44 Cloudy with Rain 67 19.4 66 18.9 97 97 SE 7 11 30.00 1016 5 8 0.22 5.59
1:52 am 01:52 Cloudy with Light Rain 67 19.4 65 18.3 93 93 SSE 7 11 30.00 1016 9 14 0.23 5.84
2:52 am 02:52 Cloudy 67 19.4 66 18.9 97 97 S 6 9 29.98 1015 10 16 0.00 0.03
3:52 am 03:52 Cloudy 67 19.4 65 18.3 93 93 S 6 9 29.99 1016 10 16 0.00 0.00
4:12 am 04:12 Cloudy 67 19.4 66 18.9 97 97 SSW 3 6 30.00 1016 9 14 0.00 0.00
4:52 am 04:52 Cloudy with Mist and Fog 67 19.4 66 18.9 97 97 SSW 5 7 29.99 1016 6 10 0.00 0.00
5:52 am 05:52 Cloudy 67 19.4 65 18.3 93 93 SSW 8 13 29.99 1016 8 13 0.00 0.00
6:52 am 06:52 Mostly Cloudy 67 19.4 65 18.3 93 93 SSW 7 11 30.01 1016 7 11 0.00 0.00
7:52 am 07:52 Cloudy 68 20 66 18.9 93 93 S 8 13 30.02 1017 9 14 0.00 0.00
8:52 am 08:52 Mostly Cloudy 69 20.6 67 19.4 93 93 SSW 6 9 30.03 1017 10 16 0.00 0.00
8:58 am 08:58 Cloudy 70 21.1 67 19.4 90 90 S 6 9 30.03 1017 10 16 0.00 0.00
9:18 am 09:18 Mostly Cloudy 71 21.7 67 19.4 87 87 SW 8 13 30.03 1017 10 16 0.00 0.00
9:40 am 09:40 Cloudy 71 21.7 67 19.4 87 87 SW 7 11 30.03 1017 10 16 0.00 0.00
9:52 am 09:52 Cloudy 71 21.7 67 19.4 87 87 SW 6 9 30.04 1017 9 14 0.00 0.00
10:52 am 10:52 Mostly Cloudy 74 23.3 68 20 82 82 SW 5 7 30.04 1017 9 14 0.00 0.00
10:55 am 10:55 Mostly Cloudy 74 23.3 68 20 82 82 SSW 8 13 30.03 1017 9 14 0.00 0.00
11:13 am 11:13 Cloudy 75 23.9 68 20 79 79 SW 9 15 30.03 1017 10 16 0.00 0.00
11:52 am 11:52 Mostly Cloudy 75 23.9 68 20 79 79 SSW 9 15 30.04 1017 8 13 0.00 0.00
12:52 pm 12:52 Mostly Cloudy 77 25 67 19.4 71 71 SSW 8 13 30.03 1017 9 14 0.00 0.00
1:13 pm 13:13 Mostly Cloudy 78 25.6 67 19.4 69 69 SSW 10 17 30.03 1017 10 16 0.00 0.00
1:38 pm 13:38 Mostly Cloudy 80 26.7 68 20 67 67 S 8 13 30.00 1016 10 16 0.00 0.00
1:52 pm 13:52 Mostly Cloudy 79 26.1 68 20 69 69 SSW 7 11 30.00 1016 10 16 0.00 0.00
2:52 pm 14:52 Mostly Cloudy 81 27.2 68 20 65 65 SSW 13 20 29.98 1015 10 16 0.00 0.00
3:52 pm 15:52 Mostly Cloudy 81 27.2 69 20.6 67 67 SSW 9 15 29.96 1015 10 16 0.00 0.00
4:52 pm 16:52 Mostly Sunny 82 27.8 69 20.6 65 65 S 10 17 29.94 1014 10 16 0.00 0.00
5:52 pm 17:52 Partly Cloudy with Nearby Thunderstorms 81 27.2 68 20 65 65 S 12 19 29.93 1013 10 16 0.00 0.00
6:16 pm 18:16 Mostly Cloudy with Thunderstorms 81 27.2 68 20 65 65 SSW 7 11 29.88 1012 10 16 0.00 0.03
6:52 pm 18:52 Mostly Cloudy with Thunderstorms 80 26.7 69 20.6 69 69 VRB 6 9 29.92 1013 10 16 0.00 0.03
7:21 pm 19:21 Mostly Cloudy with Nearby Thunderstorms 77 25 66 18.9 69 69 Calm 29.94 1014 10 16 0.00 0.00
7:47 pm 19:47 Partly Cloudy 77 25 68 20 74 74 SSE 6 9 29.94 1014 10 16 0.00 0.00
7:52 pm 19:52 Partly Cloudy 76 24.4 66 18.9 72 72 SE 8 13 29.94 1014 10 16 0.00 0.00
8:52 pm 20:52 Mostly Cloudy 71 21.7 63 17.2 76 76 S 5 7 29.94 1014 10 16 0.00 0.00
9:52 pm 21:52 Mostly Clear 73 22.8 62 16.7 69 69 ESE 5 7 29.98 1015 10 16 0.00 0.00
10:52 pm 22:52 Mostly Cloudy 70 21.1 66 18.9 87 87 S 3 6 30.00 1016 10 16 0.00 0.00
11:52 pm 23:52 Mostly Cloudy 72 22.2 64 17.8 76 76 NNW 8 13 30.00 1016 10 16 0.00 0.00

Powered by AerisWeather